SKYSAT-C8

Last updated on Mon Sep 21 2026 00:02:46 GMT+0000 (Coordinated Universal Time)

1 42990U 17068D 26263.32968435 .00007757 00000+0 20552-3 0 9997 2 42990 97.4647 41.4607 0001493 88.6311 271.5105 15.38632909496937
UTC large
Height (km)
Speed (km/s)
/
Latitude / Longitude
Inclination (degrees)
Orbital Period (minutes)
Azimuth
Elevation
Range (km)
Doppler Factor

Next 0 passes for location: London (51.5072 / 0.1276)

No passes found over London.
SKYSAT-C8